Weather in Artyushkino

Russia / Voronezh Oblast     51°20′43″N   40°57′46″E
temp.,
°C
wind,
m/s
gust,
m/s
humid.,
%
clouds,
%
prec.,
mm/h
press.,
hPa
HPBL,
m
9 march, tue
tue900:00−8n22882 0.0 100923
03:00−9nnw11881 0.0 101021
06:00−9n128956 0.0 101025
09:00−7n239578 0.4 1012199
12:00−6nnw4590100 0.4 1013508
15:00−7nnw5787100 0.4 1014628
18:00−10nnw479091 0.0 1016229
21:00−13nnw4109283 0.0 1019312
10 march, wed
wed1000:00−15nw489331 0.0 1020224
03:00−15nw489519 0.0 1022206
06:00−16nw499386 0.0 1023241
09:00−15nnw6108745 0.0 1025478
12:00−14nnw58820 0.0 1026605
15:00−14nnw47820 0.0 1027569
18:00−16nnw35900 0.0 1027153
21:00−19n46920 0.0 1029153
11 march, thu
thu1100:00−21n35950 0.0 1030102
03:00−23n33960 0.0 103279
06:00−23n23950 0.0 103355
09:00−20n23890 0.0 1034154
12:00−16n22780 0.0 1034312
15:00−14n23780 0.0 1034369
18:00−17n23900 0.0 103378
21:00−19nne22940 0.0 103437
12 march, fri
fri1200:00−20nne12940 0.0 103532
03:00−20ne22920 0.0 103532
06:00−21ene12900 0.0 103629
09:00−17e12840 0.0 1036114
12:00−13ese22760 0.0 1036284
15:00−10ese22740 0.0 1035343
18:00−12ese33820 0.0 103437
21:00−13se45870 0.0 103580
13 march, sat
sat1300:00−13sse34860 0.0 103579
03:00−13sse35853 0.0 103485
06:00−12sse4981100 0.0 1034165
09:00−8s51173100 0.0 1033509
12:00−5s7116283 0.0 1032835
15:00−4s6106091 0.0 1030841
18:00−5s41063100 0.0 1029260
21:00−6s51164100 0.0 1029286